EW6237 Weather Reports


time (UTC)temp
F
wind
direction
speed
knots
gust
knots
rain 1hr
in
rain 24hr
in
rain mn
in
humidity
%
barometer
mb
20260503200011 61 201 1.7 4.3 0.00 0.00 0.00 37 1016.1
20260503194510 61 202 0.9 3.5 0.00 0.00 0.00 40 1016.6
20260503193008 61 201 0.9 5.2 0.00 0.00 0.00 40 1017.1
20260503191506 62 201 0.0 2.6 0.00 0.00 0.00 38 1017.1
20260503190003 61 201 1.7 5.2 0.00 0.00 0.00 39 1017.5
20260503184502 62 201 0.9 3.5 0.00 0.00 0.00 39 1017.7
20260503183100 61 201 0.9 6.1 0.00 0.00 0.00 35 1017.8
20260503181558 61 202 0.9 6.1 0.00 0.00 0.00 39 1017.9
20260503180105 61 202 1.7 3.5 0.00 0.00 0.00 38 1018.0
20260503174559 61 201 0.0 4.3 0.00 0.00 0.00 39 1018.4
20260503173052 61 201 0.0 2.6 0.00 0.00 0.00 37 1018.5
20260503171551 60 201 0.0 3.5 0.00 0.00 0.00 40 1018.9
20260503081523 31 201 0.0 0.0 0.00 0.00 0.00 93 1019.0
20260503071521 31 201 0.0 0.0 0.00 0.00 0.00 92 1018.7
20260503054505 33 201 0.0 0.0 0.00 0.00 0.00 90 1018.9
20260503053004 34 201 0.0 0.0 0.00 0.00 0.00 89 1019.1
20260503051502 34 201 0.0 0.0 0.00 0.00 0.00 88 1019.1
20260503050058 34 201 0.0 0.0 0.00 0.00 0.00 87 1019.1
20260503044557 35 201 0.0 0.0 0.00 0.00 0.00 85 1019.2
20260503043052 36 202 0.0 0.0 0.00 0.00 0.00 84 1019.2
20260503041549 37 201 0.0 0.0 0.00 0.00 0.00 83 1019.2
20260503040059 37 201 0.0 0.0 0.00 0.00 0.00 80 1019.2
20260503034546 37 201 0.0 0.0 0.00 0.00 0.00 79 1019.2
20260503033044 36 201 0.0 0.0 0.00 0.00 0.00 80 1019.2
20260503031550 37 201 0.0 0.0 0.00 0.00 0.00 80 1019.2
20260503030046 38 202 0.0 0.0 0.00 0.00 0.00 80 1019.1
20260503024536 38 202 0.0 0.0 0.00 0.00 0.00 80 1019.0
20260503023035 39 201 0.0 0.0 0.00 0.00 0.00 77 1018.8
20260503021533 40 201 0.0 0.0 0.00 0.00 0.00 76 1018.7
20260503020030 40 202 0.0 0.0 0.00 0.00 0.00 73 1018.4
20260503014529 40 201 0.0 0.0 0.00 0.00 0.00 70 1018.3
20260503013032 41 201 0.0 0.0 0.00 0.00 0.00 68 1018.0
20260503011528 42 201 0.0 0.0 0.00 0.00 0.00 70 1017.7
20260503010031 44 202 0.0 0.0 0.00 0.00 0.00 64 1017.6
20260503004527 46 202 0.0 0.0 0.00 0.00 0.00 60 1017.4
20260503003026 47 202 0.0 0.9 0.00 0.00 0.00 55 1017.3
20260503001526 49 202 0.0 1.7 0.00 0.00 0.00 53 1017.0
20260503000024 50 202 0.0 2.6 0.00 0.00 0.00 51 1016.9
20260502234528 51 202 0.0 1.7 0.00 0.00 0.00 50 1016.8
20260502233025 51 201 0.9 2.6 0.00 0.00 0.00 48 1016.6
20260502231523 52 202 0.0 3.5 0.00 0.00 0.00 51 1016.6
20260502230026 52 202 0.9 4.3 0.00 0.00 0.00 46 1016.6
20260502224522 52 201 0.0 2.6 0.00 0.00 0.00 46 1016.5
20260502223020 53 202 0.0 3.5 0.00 0.00 0.00 48 1016.6
20260502221520 53 201 0.0 2.6 0.00 0.00 0.00 48 1016.6
20260502220020 53 201 0.0 1.7 0.00 0.00 0.00 47 1016.5
20260502214519 54 201 0.0 1.7 0.00 0.00 0.00 48 1016.4
20260502213018 54 201 0.0 1.7 0.00 0.00 0.00 49 1016.2
20260502211516 54 201 0.0 3.5 0.00 0.00 0.00 49 1016.4
20260502210014 53 201 0.0 1.7 0.00 0.00 0.00 50 1016.5
20260502204514 54 201 0.0 3.5 0.00 0.00 0.00 49 1016.5
20260502203012 54 202 0.0 2.6 0.00 0.00 0.00 52 1016.6
20260502201512 53 201 0.9 4.3 0.00 0.00 0.00 50 1016.7